Weather History for Fort Madison, IA

Change the Weather History Date:

Friday, October 14, 2011

  Actual Average Record
Temperature  
Mean Temperature 57 °F -  
Max Temperature 64 °F 66 °F 88 °F (1975)
Min Temperature 50 °F 45 °F 28 °F (1979)
Degree Days  
Heating Degree Days 8    
Growing Degree Days 7 (Base 50)    
Moisture  
Dew Point 38 °F    
Average Humidity 51    
Maximum Humidity 67    
Minimum Humidity 34    
Precipitation  
Precipitation 0.00 in - - ()
Sea Level Pressure  
Sea Level Pressure 29.79 in    
Wind  
Wind Speed 12 mph (WNW)    
Max Wind Speed 25 mph    
Max Gust Speed 37 mph    
Visibility 10 miles    
Events      
Averages and records for this station are not official NWS values.
T = Trace of Precipitation, MM = Missing Value Source: NWS Daily Summary

Daily Weather History Graph

Daily Weather History Graph

Search for Another Location

Airport:

Trip Planner

Search our weather history database for the weather conditions in past years. The results will help you decide how hot, cold, wet, or windy it might be!

Date:

Astronomy

Oct. 14, 2011 Rise Set
Actual Time 7:15 AM CDT 6:26 PM CDT
Civil Twilight 6:47 AM CDT 6:54 PM CDT
Nautical Twilight 6:15 AM CDT 7:26 PM CDT
Astronomical Twilight 5:44 AM CDT 7:57 PM CDT
Moon 7:39 PM CDT (10/14) 9:45 AM CDT (10/14)
Length of Visible Light 12h 06m
Length of Day
11h 11m
Waning Gibbous, 94% of the Moon is Illuminated
Oct 14
Waning Gibbous
Oct 19
Last Quarter
Oct 26
New
Nov 2
First Quarter
Nov 10
Full

Hourly Weather History & Observations

Time (CDT) Temp. Dew Point Humidity Pressure Visibility Wind Dir Wind Speed Gust Speed Precip Events Conditions
12:35 AM 53.6 °F 42.8 °F 67% 29.70 in 10.0 mi West 6.9 mph - N/A   Scattered Clouds
12:55 AM 53.6 °F 42.8 °F 67% 29.70 in 10.0 mi West 6.9 mph - N/A   Scattered Clouds
1:15 AM 53.6 °F 42.8 °F 67% 29.70 in 10.0 mi West 8.1 mph - N/A   Scattered Clouds
1:35 AM 53.6 °F 42.8 °F 67% 29.70 in 10.0 mi West 8.1 mph - N/A   Scattered Clouds
1:55 AM 53.6 °F 42.8 °F 67% 29.71 in 10.0 mi West 9.2 mph - N/A   Clear
2:15 AM 53.6 °F 42.8 °F 67% 29.71 in 10.0 mi West 8.1 mph - N/A   Clear
2:35 AM 53.6 °F 42.8 °F 67% 29.70 in 10.0 mi West 8.1 mph - N/A   Clear
2:55 AM 53.6 °F 41.0 °F 62% 29.70 in 10.0 mi West 8.1 mph - N/A   Clear
3:15 AM 51.8 °F 41.0 °F 67% 29.71 in 10.0 mi West 8.1 mph - N/A   Clear
3:35 AM 51.8 °F 39.2 °F 62% 29.71 in 10.0 mi West 9.2 mph - N/A   Clear
3:55 AM 51.8 °F 37.4 °F 58% 29.72 in 10.0 mi West 12.7 mph - N/A   Clear
4:15 AM 51.8 °F 37.4 °F 58% 29.72 in 10.0 mi West 13.8 mph 18.4 mph N/A   Clear
4:35 AM 51.8 °F 37.4 °F 58% 29.72 in 10.0 mi West 13.8 mph 20.7 mph N/A   Clear
4:55 AM 51.8 °F 37.4 °F 58% 29.72 in 10.0 mi West 11.5 mph 17.3 mph N/A   Clear
5:15 AM 51.8 °F 37.4 °F 58% 29.73 in 10.0 mi West 11.5 mph - N/A   Clear
5:35 AM 51.8 °F 37.4 °F 58% 29.73 in 10.0 mi West 10.4 mph - N/A   Clear
5:55 AM 51.8 °F 37.4 °F 58% 29.73 in 10.0 mi West 10.4 mph - N/A   Clear
6:15 AM 50.0 °F 37.4 °F 62% 29.74 in 10.0 mi West 10.4 mph - N/A   Clear
6:35 AM 50.0 °F 37.4 °F 62% 29.75 in 10.0 mi West 11.5 mph - N/A   Clear
6:55 AM 50.0 °F 37.4 °F 62% 29.75 in 10.0 mi West 11.5 mph - N/A   Clear
7:15 AM 50.0 °F 37.4 °F 62% 29.75 in 10.0 mi West 12.7 mph 18.4 mph N/A   Clear
7:35 AM 50.0 °F 37.4 °F 62% 29.76 in 10.0 mi West 12.7 mph 17.3 mph N/A   Clear
8:15 AM 51.8 °F 37.4 °F 58% 29.78 in 10.0 mi West 12.7 mph 20.7 mph N/A   Clear
8:35 AM 51.8 °F 37.4 °F 58% 29.78 in 10.0 mi WNW 13.8 mph 21.9 mph N/A   Clear
8:55 AM 53.6 °F 39.2 °F 58% 29.79 in 10.0 mi WNW 13.8 mph 19.6 mph N/A   Clear
9:15 AM 53.6 °F 39.2 °F 58% 29.79 in 10.0 mi West 18.4 mph 21.9 mph N/A   Clear
9:35 AM 55.4 °F 39.2 °F 54% 29.79 in 10.0 mi West 17.3 mph 20.7 mph N/A   Clear
9:55 AM 57.2 °F 39.2 °F 51% 29.80 in 10.0 mi WNW 15.0 mph 24.2 mph N/A   Clear
10:15 AM 57.2 °F 39.2 °F 51% 29.80 in 10.0 mi West 21.9 mph 25.3 mph N/A   Clear
10:35 AM 59.0 °F 39.2 °F 48% 29.80 in 10.0 mi WNW 16.1 mph 25.3 mph N/A   Clear
10:55 AM 60.8 °F 39.2 °F 45% 29.80 in 10.0 mi West 20.7 mph 27.6 mph N/A   Clear
11:15 AM 60.8 °F 39.2 °F 45% 29.80 in 10.0 mi WNW 23.0 mph 32.2 mph N/A   Clear
11:35 AM 60.8 °F 39.2 °F 45% 29.81 in 10.0 mi WNW 23.0 mph 32.2 mph N/A   Clear
11:55 AM 60.8 °F 39.2 °F 45% 29.81 in 10.0 mi WNW 21.9 mph 29.9 mph N/A   Clear
12:15 PM 62.6 °F 39.2 °F 42% 29.81 in 10.0 mi WNW 21.9 mph 31.1 mph N/A   Scattered Clouds
12:35 PM 60.8 °F 39.2 °F 45% 29.81 in 10.0 mi WNW 20.7 mph 33.4 mph N/A   Scattered Clouds
12:55 PM 62.6 °F 39.2 °F 42% 29.81 in 10.0 mi West 18.4 mph 27.6 mph N/A   Scattered Clouds
1:15 PM 62.6 °F 37.4 °F 39% 29.81 in 10.0 mi West 23.0 mph 27.6 mph N/A   Scattered Clouds
1:35 PM 62.6 °F 37.4 °F 39% 29.80 in 10.0 mi WNW 25.3 mph 35.7 mph N/A   Scattered Clouds
1:55 PM 62.6 °F 37.4 °F 39% 29.80 in 10.0 mi WNW 20.7 mph 31.1 mph N/A   Mostly Cloudy
2:15 PM 62.6 °F 37.4 °F 39% 29.81 in 10.0 mi NW 23.0 mph 36.8 mph N/A   Mostly Cloudy
2:35 PM 62.6 °F 37.4 °F 39% 29.81 in 10.0 mi WNW 24.2 mph 35.7 mph N/A   Mostly Cloudy
2:55 PM 62.6 °F 37.4 °F 39% 29.82 in 10.0 mi WNW 25.3 mph 32.2 mph N/A   Overcast
3:15 PM 60.8 °F 37.4 °F 42% 29.82 in 10.0 mi WNW 23.0 mph 28.8 mph N/A   Mostly Cloudy
3:55 PM 64.4 °F 35.6 °F 34% 29.82 in 10.0 mi WNW 19.6 mph 27.6 mph N/A   Scattered Clouds
4:15 PM 64.4 °F 35.6 °F 34% 29.82 in 10.0 mi West 19.6 mph 28.8 mph N/A   Scattered Clouds
4:35 PM 62.6 °F 35.6 °F 37% 29.82 in 10.0 mi WNW 17.3 mph 32.2 mph N/A   Clear
4:55 PM 62.6 °F 35.6 °F 37% 29.82 in 10.0 mi WNW 17.3 mph 29.9 mph N/A   Clear
5:15 PM 60.8 °F 35.6 °F 39% 29.83 in 10.0 mi WNW 12.7 mph 21.9 mph N/A   Clear
5:35 PM 60.8 °F 35.6 °F 39% 29.83 in 10.0 mi WNW 15.0 mph 21.9 mph N/A   Clear
5:55 PM 60.8 °F 35.6 °F 39% 29.83 in 10.0 mi WNW 19.6 mph 25.3 mph N/A   Clear
6:15 PM 60.8 °F 35.6 °F 39% 29.84 in 10.0 mi WNW 15.0 mph 24.2 mph N/A   Clear
6:35 PM 59.0 °F 35.6 °F 42% 29.85 in 10.0 mi WNW 10.4 mph - N/A   Scattered Clouds
6:55 PM 57.2 °F 35.6 °F 44% 29.85 in 10.0 mi West 10.4 mph - N/A   Scattered Clouds
7:15 PM 57.2 °F 33.8 °F 41% 29.86 in 10.0 mi WNW 11.5 mph 17.3 mph N/A   Clear
7:35 PM 55.4 °F 33.8 °F 44% 29.86 in 10.0 mi West 11.5 mph 16.1 mph N/A   Clear
7:55 PM 55.4 °F 33.8 °F 44% 29.87 in 10.0 mi West 10.4 mph - N/A   Clear
8:15 PM 55.4 °F 33.8 °F 44% 29.87 in 10.0 mi West 10.4 mph - N/A   Clear
8:35 PM 55.4 °F 33.8 °F 44% 29.88 in 10.0 mi West 8.1 mph - N/A   Clear
8:55 PM 55.4 °F 33.8 °F 44% 29.88 in 10.0 mi West 10.4 mph - N/A   Clear
9:15 PM 53.6 °F 33.8 °F 47% 29.88 in 10.0 mi West 6.9 mph - N/A   Clear
9:35 PM 53.6 °F 33.8 °F 47% 29.88 in 10.0 mi WSW 5.8 mph - N/A   Clear
9:55 PM 53.6 °F 33.8 °F 47% 29.89 in 10.0 mi West 5.8 mph - N/A   Clear
10:15 PM 51.8 °F 33.8 °F 50% 29.89 in 10.0 mi West 8.1 mph - N/A   Clear
10:35 PM 51.8 °F 33.8 °F 50% 29.89 in 10.0 mi West 10.4 mph - N/A   Clear
10:55 PM 51.8 °F 33.8 °F 50% 29.90 in 10.0 mi West 10.4 mph - N/A   Clear
11:15 PM 51.8 °F 32.0 °F 47% 29.91 in 10.0 mi West 12.7 mph - N/A   Clear
11:35 PM 51.8 °F 33.8 °F 50% 29.91 in 10.0 mi WNW 13.8 mph 20.7 mph N/A   Clear
11:55 PM 51.8 °F 33.8 °F 50% 29.92 in 10.0 mi WNW 12.7 mph - N/A   Clear